THOR ABLESTAR DEB, 124

Orbit data source: Space-Track

THOR ABLESTAR DEB, 124 is space debris in LEO originally from a launch on Thu, 29 Jun 1961 UTC launched from the Air Force Eastern Test Range (AFETR). Debris objects in space refer to the collection of defunct objects orbiting the Earth. Examples of debris include non-operational satellites, rocket bodies, and fragments generated from explosions, collisions, or faulty payload assembly.

Loading next visibility...
Identifier
124, 1961-015J
Orbit
LEO
Country
Flag of USUS
Related business
Manufacturer
Unknown
Mission
Spacecraft
Bus & Motor
Unknown
Mass
Unknown
Launch date (UTC)
1961-06-29 (64 years ago)
Launch vehicle
Unknown
Launch site
Air Force Eastern Test Range (AFETR)
Object type
Payload
Rocket body
Debris
Shape & HBR
Unknown shape, 0.2 m
Radar Cross Section
Small (<0.1 m²)

Expand to show TLE details & history
Last TLE update: 11 hours ago

TLE from 11 hours ago
0 THOR ABLESTAR DEB
1   124U 61015J   25310.92621660  .00000916  00000-0  33788-3 0  9991
2   124  66.5425 114.1813 0077048 284.3166  74.9388 14.35372545327024
Epoch: 2025-11-06T22:13Z
TLE epoch observation values (Epoch: 2025-11-06T22:13:45.114Z)
Latitude
0.00003°
Longitude
94.36581°
Altitude
762.005 km
Speed
7.481 km/s
True Right ascension
07h 36m 43s
True Declination
0° 00' 00"
Sunlit
Object was in daylight at epoch
Visualization orbit readout
Latitude
Unknown
Longitude
Unknown
Altitude
Unknown
Speed
Unknown
Apparent Right ascension
Unknown
Apparent Declination
Unknown
Sunlit
N/A
Visualization observer readout
Local Sidereal Time
05:26:31
Azimuth
Unknown
Elevation
Unknown
Doppler factor
Unknown
Orbital elements
Apogee altitude
827.31 km
Perigee altitude
717.126 km
Semi-major axis
7,150.355 km
Eccentricity
0.0077
Inclination
66.5425°
RAAN
114.1813°
Arg. of periapsis
284.3166°
True anomaly
75.79348°
Mean anomaly
74.9388°
Eccentric anomaly
75.36593°
Mean motion
3.58965 °/min
Orbital period
100.29 mins
BSTAR
0.00033788
Loading maneuver chart data...
Computing Atmospheric mass density...

Documentation

Showing up to 5 results
|